www.pogodaiklimat.ru

Погода и климат >> Архив погоды >> Туркменистан >> Бахарлы


ПОГОДА в Бахарлы

  • Прогноз погоды в Бахарлы
  • Монитор погоды в Бахарлы

АРХИВ ПОГОДЫ в Бахарлы

Время (UTC), дата Ветер
(напр.,м/с)
 
Видим.   Явления Облачность Т
(С)
Тd
(С)
f
(%)
Тe
(С)
Тes
(С)
Комфортность P
(гПа)
Po
(гПа)
Тmin
(С)
Tmax
(С)
R
(мм)
R24
(мм)
S
(см)
12 14.08 С 5 20 км 3/3 600 м
[Cu med, cong]
+30.8 +9.5 27 +30 +33 жарко 1014.4 996.5
15 14.08 СЗ 3 20 км ясно +28.0 +10.3 33 +28 +28 жарко 1015.3 997.2 +31.0
18 14.08 ЮЗ 2 10 км ясно +22.9 +10.9 47 +25 +25 комфорт 1015.5 997.1 +31.0
21 14.08 З 1 10 км ясно +20.5 +5.0 36 +22 +22 комфорт 1015.3 996.7
00 15.08 СЗ 2 10 км ясно +20.1 +1.9 30 +21 +21 комфорт 1015.8 997.1
03 15.08 СЗ 2 20 км ясно +20.5 +6.2 39 +22 +24 комфорт 1015.9 997.3 +19.7
06 15.08 СЗ 2 20 км ясно +25.1 +9.7 38 +26 +40 жарко 1015.5 997.2 +19.7
09 15.08 ЮЗ 2 20 км ясно +29.2 +9.0 28 +29 +46 жарко 1014.3 996.2
12 15.08 С 1 20 км ясно +31.0 +10.7 29 +31 +39 жарко 1012.3 994.4
15 15.08 СЗ 3 20 км ясно +30.1 +9.8 28 +30 +30 жарко 1012.1 994.2 +31.2
18 15.08 З 2 10 км ясно +25.1 +7.6 33 +25 +25 комфорт 1014.0 995.7 +31.2
21 15.08 З 1 10 км ясно +22.1 +7.3 38 +23 +23 комфорт 1014.8 996.4
00 16.08 ЮЗ 1 10 км ясно +20.7 +8.2 45 +23 +23 комфорт 1015.0 996.4
03 16.08 ЮВ 1 20 км ясно +22.9 +5.5 32 +23 +26 комфорт 1015.2 996.8 +20.3
06 16.08 В 1 20 км ясно +28.0 +9.3 31 +28 +44 жарко 1015.2 997.4 +20.3
09 16.08 В 2 20 км ясно +32.1 +6.7 21 +30 +48 жарко 1013.4 995.6
12 16.08 В 3 20 км ясно +33.3 +6.2 19 +31 +37 жарко 1011.5 993.7
15 16.08 ЮВ 2 20 км ясно +31.4 +9.5 26 +31 +31 жарко 1010.6 992.7 +33.5
18 16.08 ЮВ 1 10 км ясно +26.3 +9.7 35 +27 +27 жарко 1011.9 993.7 +33.5
21 16.08 В 2 10 км ясно +23.6 +7.7 36 +24 +24 комфорт 1011.8 993.4
00 17.08 ЮВ 2 10 км ясно +20.8 +8.2 44 +23 +23 комфорт 1012.0 993.4
03 17.08 ЮВ 2 50 км ясно +19.9 +8.9 49 +22 +24 комфорт 1012.1 993.5 +19.5
06 17.08 В 4 20 км ясно +29.4 +7.7 26 +29 +38 жарко 1011.8 993.7 +19.5
09 17.08 ЮВ 5 20 км ясно +33.9 +6.8 19 +32 +41 жарко 1008.8 991.2
12 17.08 В 5 20 км ясно +35.1 +7.8 19 +33 +37 жарко 1007.7 990.1
15 17.08 В 2 20 км ясно +31.4 +11.1 29 +32 +32 жарко 1008.8 990.9 +35.3
18 17.08 штиль 0 2000 м ясно +25.4 +9.9 38 +26 +26 жарко 1010.2 992.0 +35.3
21 17.08 Ю 1 10 км ясно +23.3 +7.4 36 +24 +24 комфорт 1011.1 992.7
00 18.08 ЮВ 1 10 км ясно +21.3 +8.6 44 +22 +22 комфорт 1011.6 993.0
03 18.08 Ю 1 20 км ясно +25.2 +6.8 31 +25 +27 комфорт 1011.6 993.3 +21.0
06 18.08 В 5 20 км ясно +32.2 +7.8 22 +31 +38 жарко 1012.9 995.1 +21.0
09 18.08 В 5 20 км ясно +35.7 +7.3 17 +33 +42 жарко 1011.2 993.5
12 18.08 ЮВ 4 20 км ясно +36.5 +8.2 18 +35 +39 очень
жарко
1011.3 993.7
15 18.08 ЮВ 2 20 км ясно +32.6 +13.0 30 +33 +33 жарко 1010.9 993.1 +36.7
18 18.08 ЮВ 2 2000 м ясно +27.2 +11.1 37 +28 +28 жарко 1013.4 995.2 +36.7
21 18.08 ЮВ 1 10 км ясно +26.2 +10.5 37 +27 +27 жарко 1012.3 994.1
00 19.08 ЮВ 1 10 км ясно +21.3 +10.5 50 +23 +23 комфорт 1012.7 994.1
03 19.08 В 1 20 км ясно +24.3 +9.4 39 +25 +27 комфорт 1013.9 995.6 +20.9
06 19.08 В 2 20 км ясно +30.0 +10.9 31 +30 +44 жарко 1015.3 997.4 +20.9
09 19.08 В 5 20 км ясно +36.2 +8.0 18 +34 +43 очень
жарко
1013.9 996.3
12 19.08 В 3 20 км ясно +36.9 +8.4 18 +35 +41 очень
жарко
1012.4 994.8
15 19.08 В 1 20 км ясно +34.1 +12.7 27 +34 +34 очень
жарко
1012.7 995.0 +37.1
18 19.08 ЮЗ 1 2000 м ясно +28.1 +11.2 35 +29 +29 жарко 1015.4 997.3 +37.1
21 19.08 ЮВ 1 10 км ясно +26.6 +12.3 41 +28 +28 жарко 1015.5 997.3
00 20.08 З 1 10 км ясно +21.7 +11.5 52 +24 +24 комфорт 1014.7 996.3
03 20.08 СЗ 2 20 км ясно +25.2 +12.0 44 +27 +29 жарко 1016.5 998.1 +21.3
06 20.08 СЗ 1 20 км ясно +31.0 +12.0 31 +31 +47 жарко 1017.4 999.4 +21.3
09 20.08 В 4 20 км ясно +36.2 +10.9 22 +35 +47 очень
жарко
1015.4 997.7
12 20.08 СВ 2 20 км ясно +37.2 +10.4 20 +36 +42 очень
жарко
1014.1 996.5
15 20.08 В 1 20 км ясно +35.3 +13.1 26 +36 +36 очень
жарко
1014.1 996.5 +37.4
18 20.08 СВ 1 2000 м ясно +29.9 +11.0 31 +30 +30 жарко 1014.8 996.9 +37.4
21 20.08 ЮЗ 1 10 км ясно +25.1 +11.5 43 +27 +27 жарко 1015.6 997.3
00 21.08 ЮЗ 1 10 км ясно +23.7 +11.7 47 +25 +25 комфорт 1014.4 996.1
03 21.08 З 2 20 км ясно +27.9 +8.9 30 +28 +30 жарко 1015.5 997.4 +23.3
06 21.08 З 2 20 км ясно +31.8 +12.2 30 +32 +45 жарко 1014.8 997.0 +23.3
09 21.08 ЮВ 2 20 км ясно +36.9 +13.3 24 +37 +54 опасность
солнечного
удара
1013.7 996.1

 

Местоположение метеостанции Бахарлы (Ахалский велаят, Туркменистан): широта 38.43 долгота 57.42 высота над уровнем моря 159 м.

В архиве по умолчанию представлена погода в Бахарлы за последнюю неделю. Архивные данные за месяц целиком и за предыдущие месяцы, начиная с января 2011 года, Вы можете получить, выбрав интересующий диапазон дат из раскрывающегося списка и нажав кнопку "Ввод!".


*Определитесь, кто Вы:
робот инопланетянин человек

Внимание! Время в таблицах - всемирное. Для получения местного времени необходимо прибавить поправку, которая равна 5 ч.

Смотрите также архив погоды в соседних городах и на ближайших метеорологических станциях:

Погода в Unknown (Туркменистан) (60 км)
Погода в Гаррыгале (Балканский велаят, Туркменистан) (98 км)
Погода в Ашхабаде (город Ашхабад, Туркменистан) (98 км)
Погода в Боджнурде (Иран) (107 км)
Погода в Сердаре (Балканский велаят, Туркменистан) (116 км)
Погода в Мараве Таппе (Иран) (141 км)
Погода в Ербенте (Ахалский велаят, Туркменистан) (142 км)
Погода в Кучане (Иран) (179 км)
Погода в Газаджаке (Лебапский велаят, Туркменистан) (188 км)
Погода в Дервезе (Дашогузский велаят, Туркменистан) (215 км)

Пояснения к столбцам:

Ветер - указаны скорость ветра в м/с - средняя за 10 мин, порывы в срок и между сроками (в фигурных скобках) и направление, откуда дует ветер: С - северный, СВ - северо-восточный, В - восточный, ЮВ - юго-восточный, Ю - южный, ЮЗ - юго-западный, З - западный, СЗ - северо-западный.
Видимость - горизонтальная дальность видимости в метрах или километрах. При видимости от 1 до 10 км при отсутствии осадков обычно наблюдается дымка, при ухудшении видимости до 1 км и менее - туман. В сухую погоду видимость может ухудшаться дымом, пылью или мглою.
Явления - указаны атмосферные явления, наблюдавшиеся в срок или в последний час перед сроком; фигурными скобками обозначены явления, наблюдавшиеся между сроками (за 1-3 часа до срока); квадратными скобками обозначены град или гололедные отложения с указанием их диаметра в мм.
Облачность - указаны через наклонную черту общая и нижняя облачность в баллах и высота нижней границы облаков в метрах; квадратными скобками обозначены формы облаков: Ci - перистые, Cs - перисто-слоистые, Cc - перисто-кучевые, Ac - высококучевые, As - высокослоистые, Sc - слоисто-кучевые, Ns - слоисто-дождевые, Cu - кучевые, Cb - кучево-дождевые. Подробнее классификацию облаков см. в Атласе облаков (PDF).
T - Температура воздуха - температура, измеренная на высоте 2 м над землей.
Td - Температура точки росы - температура, при понижении до которой содержащийся в воздухе водяной пар достигнет насыщения.
f - Относительная влажность воздуха - влажноcть воздуха, измеренная на высоте 2 м над землей.
Te - Эффективная температура - температура, которую ощущает одетый по сезону человек в тени. Характеристика душности погоды. При расчете учитывается влияние влажности воздуха и скорости ветра на теплоощущения человека.
Tes - Эффективная температура на солнце - температура, которую ощущает человек, с поправкой на солнечный нагрев. Характеристика знойности погоды. Зависит от высоты солнца над горизонтом, облачности и скорости ветра. Ночью, в пасмурную погоду, а также при ветре 12 м/с и более поправка равна нулю.
P - Атмосферное давление - приведенное к уровню моря атмосферное давление.
Po - Атмосферное давление - измеренное на уровне метеостанции атмосферное давление.
Tmin - Минимальная температура - минимум температуры воздуха на высоте 2 м над землей.
Tmax - Максимальная температура - максимум температуры воздуха на высоте 2 м над землей.
R - Количество осадков - Количество выпавших осадков за период времени, мм. При наведении курсора мыши на число - период времени, за который выпало указанное количество осадков.
R24 - Количество осадков - Количество выпавших осадков за 24 часа, мм.
S - Снежный покров - Высота снежного покрова, см. При наведении курсора мыши на число - состояние снежного покрова и степень покрытия местности в баллах.